Temp
7 7 7 7 7 7 7 7 8 8 8 9 9 10 10 11 12 12 12 12 12 13 13 13 13 12 11 12 13 14 13 13 14 13 12 11 11 11 11 12 12 13 13 12 14 15 15 16 16 17 17 18 19 20 20 21 21 21 20 19 19 20 21 22 21 20 20 20 20 22 22 22 23 23 23 24 26 26 27 28 28 29 26 24 24 23 23 22
7 7 7 7 7 7 7 7 8 8 9 9 10 10 11 11 12 12 13 13 12 13 13 13 13 13 12 12 13 14 13 13 14 13 12 11 11 11 11 12 12 13 12 12 14 15 15 15 16 17 17 18 19 20 19 20 20 20 19 19 20 21 21 21 20 20 19 19 20 21 21 21 21 22 22 23 24 25 26 27 27 27 25 24 24 23 23 23
7 6 6 6 6 7 7 7 8 9 9 10 10 11 11 11 12 12 13 13 13 13 13 13 14 14 13 13 13 14 13 13 13 12 12 11 11 11 11 11 12 12 12 13 14 15 15 16 17 17 17 17 19 20 19 19 19 20 19 19 20 19 19 20 19 19 19 19 20 20 21 21 21 21 22 22 23 24 25 25 24 24 24 25 25 24 24 24
6 6 6 6 6 7 7 8 9 9 9 10 11 11 11 12 12 13 13 13 13 13 13 13 13 14 14 14 14 13 13 13 13 12 12 11 11 11 11 11 11 12 12 13 15 15 16 16 17 17 17 17 19 20 19 19 18 19 19 19 20 19 18 19 18 19 18 19 19 20 21 21 21 21 22 22 22 23 25 24 23 23 24 24 25 25 25 25
6 6 6 6 7 7 8 8 9 9 10 10 11 11 11 11 12 13 13 13 13 13 13 13 13 13 14 14 14 14 13 13 13 12 12 11 11 11 11 11 11 12 12 14 15 15 15 16 16 16 16 17 18 18 18 18 17 17 18 19 20 18 17 18 18 18 18 18 19 19 20 20 20 21 21 21 21 22 24 23 23 23 24 24 24 25 25 25
6 6 6 7 8 8 9 8 9 9 10 10 11 11 11 12 12 13 13 13 13 13 13 13 13 13 13 14 14 14 13 12 12 12 12 11 12 11 11 11 11 12 13 14 15 15 15 15 15 14 15 16 16 16 16 17 17 16 17 19 20 18 17 17 18 18 18 18 18 19 20 20 20 20 21 21 21 22 23 23 23 23 24 24 24 25 25 25
6 6 6 7 8 9 9 9 9 9 10 11 11 11 11 12 12 13 13 13 13 13 13 13 14 14 14 14 14 13 12 12 12 12 12 12 12 11 12 12 12 12 13 14 14 14 14 14 14 13 14 15 15 15 15 16 17 16 16 18 18 17 16 17 17 17 18 18 18 19 19 20 20 20 21 21 21 22 23 23 23 23 23 24 24 24 24 24
6 6 6 7 8 9 9 9 9 9 10 11 11 11 12 12 13 13 13 13 13 13 13 13 14 14 14 14 14 13 11 11 12 12 12 12 12 12 12 12 12 12 13 14 14 13 14 13 13 13 13 14 14 15 15 15 16 15 15 15 16 16 16 17 17 17 18 18 19 19 19 19 20 20 20 20 21 22 22 23 23 23 23 23 24 24 23 23
5 5 6 7 8 9 9 9 9 9 10 11 11 12 12 12 12 13 13 13 13 13 13 13 13 14 14 14 15 12 11 11 12 12 12 12 12 12 12 12 12 12 13 13 14 13 13 12 13 13 12 13 14 14 15 15 14 14 14 15 15 15 16 17 17 18 18 19 19 19 19 19 20 20 20 21 21 21 22 22 23 22 22 23 23 23 23 23
5 5 6 7 8 9 9 9 9 10 10 11 11 12 12 12 12 12 13 13 13 13 13 13 13 13 13 14 13 11 11 11 12 12 12 11 12 12 12 12 12 12 12 13 13 13 12 12 13 13 13 13 13 14 15 14 14 14 15 15 15 15 16 17 17 18 18 19 19 18 18 19 20 19 19 21 21 20 21 22 22 22 22 22 22 22 22 22
5 5 7 8 8 9 9 9 9 10 11 11 11 12 12 12 12 12 12 12 13 13 13 13 13 13 13 13 11 11 11 12 12 12 12 11 12 13 12 12 12 12 12 12 13 12 12 13 13 13 13 14 14 15 15 15 14 15 15 15 15 16 17 18 18 18 18 18 18 18 17 18 19 18 19 20 20 20 21 21 22 22 21 22 22 22 22 22
5 6 7 8 8 9 9 9 10 11 11 11 11 12 12 12 12 12 12 12 13 13 13 13 13 13 13 12 11 11 11 12 12 12 11 12 12 13 12 12 12 12 11 12 12 12 12 12 13 13 14 14 14 15 15 15 14 15 15 14 15 17 17 17 18 17 18 17 18 18 17 18 18 18 19 20 20 21 21 21 21 21 21 22 21 22 22 22
5 6 7 8 9 9 9 10 10 11 11 11 11 12 12 13 13 12 12 12 13 13 13 13 13 13 13 12 11 12 12 12 12 11 11 12 12 13 12 12 13 12 12 12 12 12 12 12 12 12 13 14 15 15 15 15 14 15 16 16 16 17 16 17 17 17 17 17 17 17 16 17 18 19 19 20 20 20 20 20 21 21 21 21 21 22 21 20
5 6 7 8 9 9 9 10 10 11 11 11 11 11 12 12 13 13 12 12 13 13 13 13 13 13 13 12 12 13 12 12 12 11 11 12 12 12 12 13 13 13 12 12 13 13 13 13 13 13 14 15 16 16 16 15 15 15 16 16 16 15 15 17 17 16 16 16 17 17 15 17 18 19 20 20 20 20 20 20 20 21 21 21 22 21 19 18
5 6 7 8 9 9 9 10 10 11 12 12 11 11 11 12 13 13 13 13 13 13 13 14 13 13 13 12 12 12 12 12 12 11 11 12 12 12 12 12 13 13 13 13 13 14 13 13 13 14 15 16 16 15 15 14 14 14 14 14 14 14 15 17 17 16 15 16 17 16 15 16 18 19 19 20 20 19 19 20 20 21 20 20 20 19 18 17
5 6 7 8 9 9 9 10 11 11 12 12 12 12 12 12 12 12 13 13 13 13 13 13 13 13 12 11 12 12 11 12 11 11 11 11 11 12 12 13 14 14 14 14 14 14 14 13 14 14 15 15 14 14 13 12 12 13 13 12 13 14 14 15 17 16 16 16 16 16 15 15 17 18 19 19 19 19 19 20 20 19 18 18 17 17 17 16
5 6 7 8 9 9 9 10 11 12 12 12 12 12 12 12 12 12 13 13 13 12 12 12 13 13 12 12 11 11 11 11 11 11 11 12 12 12 12 13 14 14 14 15 15 15 15 14 14 14 14 14 13 13 12 10 11 12 12 12 13 13 14 14 15 16 16 15 15 15 15 15 17 18 18 19 19 19 19 19 18 17 16 16 16 16 16 16
5 6 7 8 9 9 10 10 11 12 12 12 12 12 13 13 13 13 13 13 13 13 12 12 12 12 12 11 10 10 11 11 11 11 11 12 12 12 13 14 14 15 15 15 15 15 14 14 13 13 13 13 13 13 11 10 11 12 12 13 13 13 13 13 14 15 15 14 14 15 15 16 16 17 18 18 19 18 17 16 16 16 16 15 15 15 15 15
5 6 7 8 9 9 10 10 10 11 12 12 12 12 13 13 13 12 12 12 12 11 11 10 11 10 11 11 10 10 11 11 12 11 11 12 12 13 14 14 15 15 15 14 14 14 14 13 12 11 11 12 12 12 12 12 13 13 13 13 13 13 13 13 14 15 15 14 14 15 15 15 16 17 17 17 16 15 15 15 15 15 15 14 14 14 14 14
5 6 7 8 8 9 9 9 10 11 11 12 12 13 12 11 13 12 11 10 10 10 10 9 10 10 10 10 10 10 11 12 12 11 11 11 12 13 13 14 15 14 13 13 13 14 13 11 10 10 11 12 12 12 12 13 14 13 13 13 13 13 12 13 14 15 15 13 13 15 15 15 16 16 15 15 15 14 14 14 14 14 14 14 14 14 14 14
6 6 7 7 8 8 9 9 10 10 10 11 11 11 9 8 10 10 9 10 10 10 10 10 10 11 10 10 10 9 10 11 12 11 10 11 12 13 12 13 13 12 13 14 14 14 13 10 10 11 12 13 13 12 12 13 14 13 12 12 12 12 11 13 14 14 14 13 13 15 15 15 15 14 14 14 14 14 13 13 13 13 14 14 14 13 14 14
6 6 7 7 8 8 9 9 9 9 10 11 10 8 7 6 7 7 8 10 10 10 11 11 11 11 10 10 10 10 10 10 11 11 10 10 11 11 11 12 12 12 12 13 12 12 11 9 10 11 12 13 13 12 11 12 13 13 12 11 11 11 11 12 14 14 14 14 14 15 14 14 13 13 14 14 13 13 13 13 13 13 13 13 13 13 13 13
6 6 7 7 8 8 9 9 8 8 9 9 7 6 6 5 6 6 7 10 10 10 11 11 10 10 10 10 10 10 10 9 9 10 10 10 10 9 10 11 12 11 12 11 11 10 9 10 11 11 12 12 12 11 10 11 12 12 10 10 10 10 10 10 12 13 13 14 14 15 14 12 11 12 13 13 13 13 13 13 13 13 13 13 13 13 13 13
6 7 7 8 8 8 8 8 8 8 8 7 6 5 5 5 6 6 7 10 11 11 11 10 10 10 9 9 10 10 10 10 9 9 10 9 9 9 10 11 11 11 10 11 11 10 9 10 11 11 12 12 11 10 10 9 10 11 10 9 9 10 10 11 12 13 13 14 15 15 12 10 10 11 11 13 13 13 13 13 13 13 13 13 13 13 13 12
6 7 7 8 8 8 8 8 8 7 7 7 6 5 5 6 6 6 8 12 12 11 11 10 11 10 9 10 10 10 10 10 10 10 11 10 9 9 10 11 11 10 10 11 11 10 9 10 11 10 11 11 10 10 9 9 9 10 11 10 10 10 11 12 12 12 13 13 14 15 12 9 9 10 10 12 13 12 13 12 12 12 12 12 12 12 12 12
6 7 7 8 8 8 8 8 7 7 8 7 5 6 5 6 6 6 8 12 12 11 11 11 11 11 10 10 11 10 10 10 10 10 11 10 10 9 9 11 11 10 10 10 10 10 10 10 10 10 10 10 9 9 10 9 8 9 11 10 10 10 11 12 11 11 12 12 14 15 12 10 10 9 10 12 12 12 12 12 12 12 12 12 12 12 11 11
6 7 7 8 8 8 8 8 7 7 7 6 6 6 6 6 6 6 10 14 13 11 11 11 11 11 10 11 11 10 9 9 11 11 11 11 11 10 9 9 10 10 11 10 9 10 10 9 9 9 9 9 8 8 9 10 9 9 11 11 10 10 11 11 11 11 13 13 13 14 13 12 11 9 10 11 11 11 12 12 12 12 12 11 11 11 11 11
6 6 7 7 7 8 7 7 7 6 6 6 6 6 6 7 6 7 12 15 13 12 11 10 11 11 10 11 11 10 9 9 10 10 11 11 10 11 10 9 9 9 11 11 9 10 10 9 8 9 8 8 8 8 9 10 9 10 11 10 10 11 11 11 11 12 13 12 12 13 13 12 11 10 10 11 10 10 11 11 11 11 11 11 11 11 11 11
6 6 7 7 7 7 6 7 6 5 6 6 6 6 7 6 6 9 13 14 12 11 11 10 10 10 10 11 10 9 10 10 9 9 11 11 10 10 9 9 9 9 11 12 10 10 11 10 9 9 8 8 8 9 10 10 10 10 10 11 11 12 12 11 11 11 12 12 11 12 13 12 10 10 10 10 9 9 10 11 11 11 11 11 11 11 11 11
6 6 6 7 7 6 6 7 6 6 6 6 6 6 6 6 9 13 15 13 11 10 10 10 9 9 9 9 9 8 9 9 9 9 11 11 10 10 9 9 9 9 11 12 11 11 11 11 10 9 9 9 9 9 10 11 10 10 10 11 12 13 12 11 11 12 12 11 11 12 12 11 11 9 8 9 9 9 10 11 11 11 11 11 11 11 11 10
6 6 6 7 6 6 7 7 6 6 6 6 6 6 6 8 12 15 14 11 10 10 9 8 8 8 8 8 7 7 7 8 9 9 9 9 8 8 8 8 7 9 10 9 10 11 11 11 10 9 9 10 9 9 10 11 10 10 10 11 11 12 12 12 12 12 11 11 11 11 12 11 11 10 8 9 9 10 11 10 10 11 10 10 10 10 10 10
6 6 6 6 6 6 6 6 6 6 6 6 6 6 8 12 14 14 13 10 10 9 7 7 8 8 8 8 7 6 7 7 8 8 8 8 7 6 6 6 5 7 8 8 8 9 10 9 10 10 10 10 9 8 9 9 9 9 9 10 9 10 10 10 11 11 10 11 11 11 11 11 11 10 9 9 9 11 11 11 10 10 10 10 10 10 10 10
6 6 6 6 6 6 6 6 6 7 7 6 6 7 11 15 14 11 10 10 9 8 6 7 7 7 8 8 6 6 7 7 7 8 8 8 7 6 6 6 6 6 7 7 7 7 8 9 10 9 9 10 9 7 6 7 8 7 9 9 8 8 7 8 9 9 9 10 11 11 10 10 10 10 10 9 10 11 12 11 11 11 10 10 10 10 10 10
7 7 6 6 6 6 6 7 7 7 7 6 7 9 13 15 12 8 8 8 7 7 7 7 7 7 7 7 6 6 7 7 7 7 8 8 7 6 6 6 6 6 5 6 6 6 7 8 9 9 9 9 9 8 7 7 7 7 9 9 8 7 6 7 8 8 8 8 9 10 10 11 11 10 10 10 11 12 12 11 11 11 10 10 10 10 9 9
7 7 6 6 6 6 7 7 7 8 7 7 9 12 14 13 10 8 8 7 7 7 7 7 7 8 8 6 6 6 6 7 7 7 7 7 6 5 5 5 5 5 5 5 6 6 6 7 9 9 9 9 8 8 9 8 7 8 9 9 7 7 7 7 7 7 7 7 7 9 11 12 11 10 11 11 11 12 12 11 11 11 10 10 9 9 9 9
7 7 7 7 6 7 7 8 8 8 7 8 11 12 10 8 8 7 7 7 7 7 7 7 8 8 8 7 7 7 7 7 7 7 6 6 6 6 5 5 5 5 5 5 5 5 5 7 9 9 9 10 8 8 9 8 8 8 8 7 7 8 7 6 7 7 8 7 7 10 11 11 11 10 11 11 11 12 12 11 10 10 10 10 9 9 8 8
7 7 7 7 7 8 8 8 8 8 7 9 12 9 6 5 5 6 6 7 7 6 7 8 8 7 7 8 7 6 7 7 7 7 6 6 6 6 6 5 5 6 5 5 5 5 5 6 8 8 8 9 9 8 8 9 8 8 8 8 8 8 7 7 6 7 7 7 8 10 9 10 10 9 10 11 11 11 11 11 10 10 10 10 9 9 8 8
7 7 8 7 8 8 8 9 8 8 9 10 9 6 4 4 5 5 6 7 6 6 7 7 7 6 7 7 7 6 6 6 6 7 7 6 6 6 5 5 5 6 6 5 5 5 5 5 7 8 7 8 8 8 8 8 9 8 8 9 8 6 6 7 6 6 5 5 7 8 8 8 9 10 10 11 11 11 10 10 10 10 10 9 9 8 8 8
7 8 8 8 8 9 9 9 8 9 11 11 9 6 4 4 5 5 6 6 6 6 6 6 5 6 6 6 6 6 6 6 6 6 6 6 6 6 5 5 5 5 6 5 5 5 5 5 6 8 7 7 8 8 7 7 8 8 9 8 8 7 6 6 6 5 5 5 5 6 7 8 9 10 10 10 10 10 10 10 9 10 10 9 8 8 8 8
7 8 9 8 9 9 9 9 8 9 9 8 7 5 4 4 5 5 5 5 5 5 6 6 5 5 5 5 5 5 6 5 5 6 6 6 6 5 5 5 5 5 5 6 5 5 5 5 5 6 7 6 7 7 6 6 6 7 7 7 6 7 7 6 6 6 6 5 5 5 5 7 10 10 9 10 10 10 10 9 9 9 9 9 9 8 8 8
8 8 9 9 9 10 9 9 8 8 6 4 4 3 3 5 5 5 5 5 4 5 6 6 6 5 4 4 4 5 4 5 5 6 6 6 6 5 5 5 5 5 5 5 5 5 5 4 4 4 4 5 7 7 6 6 6 6 6 6 6 6 6 5 5 6 6 5 5 4 4 6 9 10 10 11 10 10 10 9 9 9 9 9 9 8 8 8
8 9 9 9 9 10 10 8 7 7 6 4 4 3 4 6 5 5 5 5 4 4 5 5 6 5 4 4 4 4 3 4 5 6 6 6 6 5 4 4 5 5 4 4 5 4 4 3 3 3 4 5 6 6 6 6 6 5 6 6 6 6 5 4 4 4 4 4 5 4 3 5 9 10 11 10 10 9 9 9 9 8 9 9 9 8 8 8
8 9 9 9 9 10 10 9 7 5 3 3 4 3 4 5 5 5 5 5 4 4 4 5 5 5 5 4 4 3 3 4 5 5 6 6 5 5 4 4 5 5 4 4 4 4 3 3 2 3 5 6 6 5 5 5 5 6 6 6 6 5 5 4 4 4 3 2 3 3 2 5 9 11 10 10 9 9 9 9 8 8 8 8 8 8 7 7
7 7 8 8 9 9 10 9 7 4 2 2 3 3 3 4 4 4 5 5 5 5 4 4 4 5 5 5 4 3 3 4 4 5 5 5 5 5 5 5 5 4 4 4 4 4 3 3 3 3 5 6 5 5 5 5 5 5 5 5 6 5 5 4 4 3 2 2 3 2 2 5 8 9 9 9 9 8 8 8 8 8 8 8 8 7 7 7
7 7 8 8 8 8 8 7 7 4 2 2 3 2 3 3 3 4 4 5 5 5 5 5 5 5 5 5 4 4 4 4 4 4 4 4 5 5 5 5 4 4 4 4 4 4 3 3 3 3 3 4 5 5 5 4 4 4 4 4 5 5 4 4 3 2 2 3 3 3 2 5 7 8 8 8 8 7 7 7 7 8 8 8 7 7 7 7
7 8 9 9 8 7 6 6 6 4 2 3 4 3 3 3 3 3 4 4 5 5 5 5 5 5 5 4 4 4 4 3 3 3 3 3 4 5 5 4 4 4 4 4 4 3 3 3 3 3 3 3 4 4 4 3 2 2 3 3 4 4 4 4 3 2 2 3 3 3 4 4 5 6 6 7 7 6 6 7 7 8 8 8 7 7 7 7
7 8 7 7 8 7 6 6 5 4 4 5 5 4 3 4 3 3 4 4 5 5 4 5 4 4 4 4 3 4 4 4 3 3 3 3 4 4 5 5 4 4 3 4 4 3 2 2 3 3 2 3 3 3 3 3 2 2 2 2 3 3 4 3 2 2 3 2 2 3 4 4 4 5 5 6 6 6 7 7 7 7 7 7 7 7 7 7
6 6 4 4 6 6 6 5 4 4 5 5 4 4 4 4 3 3 3 4 4 4 4 4 4 4 4 4 4 4 4 4 3 3 3 3 3 4 4 4 3 3 3 3 3 3 2 1 2 2 2 2 3 3 3 2 2 2 2 2 2 3 3 3 2 3 3 2 2 3 4 3 4 5 5 6 6 6 7 7 7 7 7 7 7 6 6 6
5 4 3 3 4 3 3 4 4 4 5 5 4 4 4 4 4 4 4 3 3 4 4 4 4 4 4 5 4 4 4 4 4 4 4 3 3 3 3 3 3 3 3 2 2 2 1 1 2 2 1 1 2 2 2 2 1 2 2 2 2 2 3 3 3 3 3 3 3 3 3 3 4 5 6 6 7 7 7 7 6 6 6 5 5 5 5 5
5 5 4 3 3 1 1 3 4 4 5 4 4 4 4 5 5 5 4 4 3 4 4 4 4 5 5 4 4 4 4 4 4 4 4 3 3 3 3 3 3 2 2 2 2 2 1 1 2 1 0 0 1 1 2 1 1 1 1 2 2 2 2 2 2 2 2 2 3 3 3 4 5 6 6 7 7 7 6 6 5 4 4 4 4 4 4 5
4 5 4 4 4 2 2 3 4 5 5 4 4 4 4 5 5 5 5 5 5 5 4 4 5 5 5 4 4 4 5 5 4 4 4 4 3 3 3 4 4 3 2 2 2 1 1 1 1 1 -0 0 1 2 2 2 1 1 0 1 1 1 1 1 2 3 3 3 3 3 3 4 6 7 6 6 6 5 4 4 4 4 4 4 4 4 4 4
4 4 5 5 5 3 3 4 4 5 6 5 5 5 4 5 6 5 5 5 5 5 5 5 5 5 4 4 4 4 5 5 4 4 4 4 4 4 4 4 4 3 3 3 2 2 1 0 1 0 -0 0 1 2 2 1 0 0 2 3 3 3 3 3 4 4 4 4 4 3 4 5 6 5 4 4 4 3 3 3 3 3 4 4 4 4 4 4
Height
872 871 869 867 865 864 862 860 859 857 855 854 852 851 849 848 847 846 845 843 842 840 839 838 836 835 833 832 830 830 829 829 830 827 826 832 835 831 828 824 820 816 813 810 808 804 799 798 796 793 791 787 785 784 783 783 782 786 792 799 800 794 789 785 786 788 786 787 784 777 774 776 775 771 767 762 761 763 762 759 757 755 758 762 764 766 766 768
873 872 870 868 866 865 863 861 859 857 856 854 853 852 850 849 848 846 846 844 843 841 840 839 837 836 834 832 830 830 829 829 829 828 831 835 833 830 827 824 821 817 814 811 808 806 803 800 797 794 792 789 786 784 785 784 785 789 792 797 796 791 787 785 787 788 788 791 788 781 778 779 780 778 773 772 772 768 766 764 762 763 765 765 765 767 768 768
874 872 871 869 867 866 864 862 860 858 857 855 854 852 851 850 849 847 847 845 844 842 840 839 838 836 834 832 830 829 830 829 829 831 835 835 832 830 828 824 821 818 816 814 811 809 806 802 799 796 794 792 787 784 787 786 787 787 790 796 792 789 789 786 788 788 790 790 788 786 781 780 781 779 776 778 777 772 771 772 772 773 773 770 768 768 768 768
875 873 871 869 868 866 864 862 861 859 857 856 855 853 852 851 849 848 847 846 845 843 842 840 839 837 835 832 830 830 829 829 833 837 837 835 833 831 828 825 822 819 817 816 813 810 807 804 800 795 794 794 787 785 789 790 791 789 791 793 787 789 792 789 791 790 791 790 789 789 785 784 783 780 780 781 783 779 773 775 777 777 776 773 771 768 768 768
875 873 872 869 868 866 864 863 861 860 858 857 856 854 853 851 850 849 848 847 846 845 843 841 840 838 836 833 831 829 828 834 839 840 838 836 834 832 829 826 824 821 818 817 814 811 808 804 801 798 798 796 792 792 794 793 794 794 792 788 784 790 795 792 792 793 792 790 790 789 788 788 785 783 783 783 788 785 776 775 777 776 774 773 772 769 768 768
876 874 872 870 868 866 865 863 861 860 859 858 856 855 854 853 852 850 849 848 847 846 844 842 841 839 838 835 834 830 830 842 846 841 840 838 835 833 830 827 825 822 819 818 815 812 809 806 805 805 803 799 799 801 801 797 797 800 796 788 786 792 797 795 793 795 794 792 792 790 788 786 785 786 783 783 786 783 777 776 776 775 773 772 771 769 769 768
877 874 872 870 868 867 865 863 862 860 859 858 857 856 855 854 853 851 850 849 848 847 845 843 841 839 838 836 837 834 835 846 847 843 842 838 836 833 830 829 826 823 821 818 816 814 812 810 810 810 808 805 806 806 804 801 799 802 801 795 794 796 798 797 795 796 794 794 792 789 787 786 787 787 783 784 784 781 779 776 775 776 774 773 772 770 770 770
877 875 873 871 869 867 866 864 862 861 860 859 858 857 856 855 854 853 851 850 849 848 846 844 842 840 838 837 837 836 841 848 847 845 843 839 837 834 832 830 827 824 822 820 819 817 815 815 815 813 813 812 811 809 807 805 803 805 806 803 801 800 800 798 797 796 794 794 791 789 790 788 787 787 786 786 784 781 779 777 776 776 775 774 774 773 773 772
877 875 873 871 870 868 866 865 863 862 861 860 859 858 857 856 855 854 852 851 850 849 848 846 844 842 840 839 836 838 847 851 848 846 843 840 837 835 833 831 828 827 824 823 821 820 819 819 818 817 818 816 814 812 809 809 810 810 809 806 805 803 801 800 798 796 795 793 791 792 793 790 787 788 789 785 783 782 779 779 778 777 777 776 776 775 775 775
878 876 874 872 870 869 867 865 864 863 862 861 860 858 858 856 856 855 853 852 851 850 849 847 847 844 843 841 836 842 853 853 849 847 843 841 838 836 834 832 831 829 827 826 823 822 822 821 820 818 818 817 816 813 810 812 812 810 809 807 806 804 800 798 797 795 794 792 792 795 796 793 788 792 793 784 782 783 781 781 779 779 780 778 778 778 777 777
878 876 874 873 871 869 867 866 865 863 863 862 860 859 858 857 856 856 854 853 852 851 850 849 848 846 846 843 841 850 857 853 851 848 844 842 839 837 836 834 833 831 830 828 825 825 824 823 821 818 818 818 816 812 809 811 811 808 808 808 805 801 798 795 796 796 795 796 795 796 798 794 790 793 792 786 784 784 782 782 781 781 782 781 781 780 779 778
879 876 875 873 872 870 868 867 865 864 863 862 861 859 858 857 856 856 855 853 852 852 852 851 849 848 848 845 848 857 857 853 853 849 846 843 841 839 837 836 835 833 832 830 828 826 825 825 823 821 819 817 816 813 810 809 809 807 805 809 805 798 799 797 797 799 798 800 797 796 800 793 789 793 790 786 786 784 784 784 783 783 783 783 783 781 781 780
879 877 875 874 872 871 869 867 866 865 865 863 862 859 858 858 857 857 856 855 854 853 853 852 851 850 848 850 855 859 856 855 853 849 846 843 842 841 839 837 836 835 834 832 830 827 826 825 824 824 821 817 815 811 810 809 810 808 802 805 805 800 804 801 800 802 801 804 799 800 808 796 789 792 789 787 787 786 787 786 785 784 784 783 782 782 783 784
880 878 876 874 873 872 870 868 867 867 866 864 863 861 859 858 858 858 857 856 855 854 854 853 852 851 851 855 859 858 856 856 852 848 845 844 842 841 839 838 837 836 834 832 831 828 826 824 823 823 820 818 813 805 807 809 810 810 804 804 806 808 810 803 802 806 806 807 801 804 813 802 793 792 788 788 788 789 790 788 787 786 784 783 782 784 786 788
880 878 877 875 874 872 871 869 868 868 867 866 864 862 861 859 859 858 858 857 856 856 855 853 852 852 853 858 859 858 857 854 851 850 849 847 845 842 840 838 837 836 834 833 831 828 826 825 824 823 820 817 812 808 813 816 816 818 818 817 815 816 815 806 802 808 812 810 803 808 814 805 797 792 789 790 790 791 792 790 788 787 787 787 787 789 791 793
881 879 877 876 874 873 872 870 869 869 867 866 864 863 862 862 860 859 859 857 857 857 855 855 854 852 857 863 861 858 857 855 854 853 852 850 848 845 842 839 838 836 835 833 830 829 827 826 826 825 823 820 819 820 822 828 829 827 828 830 826 822 819 812 806 807 811 812 808 811 815 809 800 795 793 792 792 793 792 791 791 792 794 794 794 795 796 797
882 880 878 876 875 874 872 870 870 869 867 866 865 864 864 864 862 860 858 857 858 858 857 858 855 853 858 863 862 861 860 859 857 854 852 850 848 846 843 840 838 835 834 833 832 830 829 829 829 830 829 827 827 827 831 842 842 834 833 833 829 826 823 820 815 810 810 815 814 812 813 810 802 798 797 794 792 793 793 795 797 799 800 800 800 800 800 801
883 881 879 877 876 874 873 871 870 869 868 866 865 866 865 866 864 862 859 858 857 857 858 859 856 858 863 864 867 868 865 861 859 857 854 850 847 845 844 842 839 836 833 834 834 832 833 834 835 836 835 832 832 831 838 847 845 837 835 833 830 829 827 826 823 815 814 818 818 815 813 810 805 801 798 796 794 797 800 802 804 805 806 806 806 806 806 806
884 882 880 879 877 876 874 872 870 869 868 866 867 866 865 866 865 865 864 861 860 864 871 872 869 874 877 873 873 872 867 863 861 860 855 851 848 845 844 842 840 838 837 839 839 837 838 840 840 842 841 838 838 838 840 840 837 835 833 832 832 831 830 828 824 818 817 823 821 816 815 813 809 804 803 804 803 806 809 808 810 811 811 811 811 811 811 810
884 882 881 879 878 877 875 873 871 870 868 868 868 866 867 870 867 869 871 868 870 877 883 883 880 882 882 878 876 872 867 864 863 862 857 854 851 847 846 844 842 842 842 843 843 841 842 845 849 850 848 843 842 842 840 834 832 835 835 835 833 834 836 831 824 819 818 826 825 817 817 813 808 809 811 812 810 812 815 815 816 816 816 816 816 815 814 814
884 883 882 881 880 879 877 875 873 871 870 869 868 869 875 879 875 877 879 877 880 883 882 883 882 882 882 880 878 874 870 867 864 864 861 857 852 850 851 849 847 849 848 846 845 843 844 852 858 856 850 845 844 845 843 837 833 836 839 840 838 839 841 832 825 823 821 826 824 817 818 817 814 818 818 815 817 820 821 821 821 821 820 820 819 819 818 817
885 884 882 881 880 880 879 877 875 874 872 870 870 875 881 884 883 884 883 881 882 883 882 883 882 882 882 880 879 877 875 871 866 865 863 860 856 858 859 854 853 856 854 851 851 851 852 860 863 857 851 847 846 848 847 843 837 840 844 845 847 846 842 834 826 825 823 823 821 815 820 826 826 825 823 821 824 825 824 824 825 825 824 823 822 822 820 819
886 884 883 882 881 881 880 878 877 876 875 874 876 880 883 885 884 885 884 882 883 883 883 883 883 883 882 881 880 877 876 876 873 870 867 865 864 864 864 861 859 860 859 858 860 863 866 868 865 858 854 850 850 853 854 850 844 846 851 854 856 851 849 847 835 826 824 822 819 814 822 837 836 829 828 828 828 827 827 827 826 827 826 826 825 824 823 821
886 885 884 883 881 881 881 880 879 879 879 879 881 884 885 885 884 885 884 880 881 883 883 883 883 884 884 883 881 879 879 880 880 876 873 872 870 867 865 863 862 864 866 863 862 869 874 871 866 862 857 854 855 857 859 860 854 851 854 859 860 855 852 849 838 829 824 820 818 816 832 850 846 838 837 833 830 829 828 828 827 828 828 827 827 827 826 825
887 886 885 883 882 882 881 881 881 882 882 882 884 886 885 885 884 884 883 878 880 883 882 883 883 884 885 884 882 881 882 882 882 881 877 875 874 871 868 864 865 870 871 867 866 872 875 871 868 865 861 859 860 861 863 866 865 857 853 857 859 856 849 842 838 834 829 825 820 818 838 855 850 845 843 835 832 832 830 830 830 829 829 828 828 828 828 827
888 887 885 884 883 882 881 882 883 883 883 883 886 886 885 885 883 885 883 877 881 886 885 884 884 886 886 885 883 880 883 884 882 883 879 877 876 875 874 869 867 871 872 871 870 872 875 873 872 870 867 866 866 867 865 865 870 863 854 854 855 855 849 843 842 840 834 832 825 819 833 847 848 849 846 837 835 835 832 832 832 831 831 831 830 830 830 829
889 888 887 885 884 882 882 885 885 884 885 886 886 885 885 885 884 886 880 873 880 887 888 888 887 889 888 888 885 882 890 890 883 883 880 879 877 874 878 878 874 873 869 870 875 876 877 877 877 875 873 874 875 875 868 864 871 866 854 854 854 852 848 845 847 842 834 832 828 822 826 836 844 849 846 839 838 839 835 834 835 834 834 834 833 832 832 832
889 889 888 887 886 885 885 887 887 887 888 888 886 885 885 884 885 886 876 874 885 889 891 893 890 891 890 889 888 888 895 893 887 887 881 881 880 876 880 883 881 879 868 870 880 880 877 880 881 879 879 881 880 878 870 864 868 863 855 854 851 847 845 844 845 841 834 835 836 829 827 836 844 846 844 840 842 843 839 838 838 836 837 836 835 834 833 833
890 890 889 888 888 887 887 888 888 889 889 888 886 885 884 884 885 883 873 878 891 892 894 895 892 894 893 890 891 893 894 893 893 892 883 882 883 878 882 884 883 881 871 870 878 879 876 878 880 880 883 884 880 875 870 866 867 863 855 851 844 840 841 844 845 842 837 841 844 836 832 839 844 847 848 844 847 848 842 840 839 837 838 837 836 836 835 834
890 890 889 889 889 888 889 889 889 890 888 887 886 885 885 884 881 874 872 883 895 897 897 898 898 901 899 895 895 896 896 895 895 892 886 886 886 881 881 883 882 881 875 872 875 875 874 875 876 880 883 882 879 874 868 867 867 862 855 847 839 836 839 843 842 841 841 843 844 839 836 841 845 852 856 849 849 850 843 841 841 839 839 838 837 837 836 835
890 890 889 889 889 889 890 890 890 889 888 887 886 886 885 883 875 869 877 892 898 900 903 905 905 904 903 903 904 902 900 897 894 893 891 890 891 888 886 890 891 884 880 883 881 875 875 877 878 881 882 879 879 875 869 867 866 864 859 851 844 839 840 842 838 839 845 845 843 842 839 841 843 848 853 851 848 846 843 843 843 841 840 839 838 838 837 837
890 890 890 889 889 890 890 891 890 889 888 887 886 887 883 876 873 875 885 896 899 905 911 912 909 908 905 906 909 909 905 901 897 895 895 895 897 900 902 908 909 898 892 895 893 884 881 883 881 881 881 880 881 881 876 872 870 870 866 861 862 859 857 859 853 851 852 846 842 845 845 844 843 843 847 850 848 843 842 843 843 842 842 840 840 839 838 838
890 890 889 890 889 889 890 890 889 887 888 887 885 888 879 868 876 892 897 899 903 911 916 913 911 910 908 908 913 913 908 906 903 899 898 898 902 908 911 914 913 910 906 904 903 899 891 885 882 883 883 882 884 889 891 885 880 880 874 871 879 882 884 883 871 865 864 854 845 847 851 849 844 842 844 847 845 841 840 842 842 842 842 842 841 840 840 839
890 890 890 890 889 888 889 888 888 887 887 887 886 884 874 871 890 908 909 908 912 914 914 914 914 911 911 914 916 914 911 909 908 905 903 902 908 913 915 915 913 914 914 910 910 911 904 895 888 888 888 885 886 890 893 890 888 885 875 874 883 891 897 893 883 882 879 869 860 854 851 845 839 839 841 841 841 839 839 840 841 842 842 842 842 841 842 840
890 890 890 890 889 889 888 887 887 886 885 888 885 878 875 883 898 907 910 913 915 913 912 914 913 909 910 916 917 915 915 913 909 910 911 910 915 919 920 920 918 917 918 915 912 912 911 901 890 887 886 886 889 888 886 887 888 882 875 879 888 892 896 893 888 887 884 883 876 856 841 836 837 840 838 838 839 837 838 839 840 842 841 842 843 842 843 842
890 890 890 891 890 889 888 886 886 885 886 886 881 883 895 905 909 911 913 914 913 913 914 913 911 909 909 913 916 915 915 915 912 912 915 917 919 920 922 924 922 921 923 923 920 919 917 902 888 888 887 884 889 888 884 887 887 881 881 889 890 887 892 895 891 883 881 887 875 851 842 839 841 844 838 838 840 837 838 840 840 842 841 841 843 843 844 843
891 891 891 891 890 889 887 886 885 884 885 883 884 899 918 923 921 920 918 915 915 917 914 911 913 916 915 914 916 918 916 915 914 913 915 919 921 921 922 924 923 923 924 926 925 923 924 912 894 892 892 886 887 888 885 885 886 886 889 890 886 885 890 894 894 889 888 888 869 851 853 851 847 848 842 838 840 838 839 840 840 842 841 842 843 843 844 843
891 891 891 890 889 889 887 885 885 884 883 887 898 914 925 926 923 922 919 917 919 918 915 915 917 919 919 915 917 921 919 917 917 916 916 918 921 923 924 925 925 924 923 925 925 922 925 920 901 891 895 891 886 888 889 886 884 886 888 886 887 895 898 894 895 899 901 899 880 861 861 859 851 849 845 841 841 840 840 840 842 842 842 843 843 843 844 843
892 891 890 891 889 888 887 885 885 884 880 886 899 913 923 926 924 922 921 920 920 919 918 922 924 923 922 921 922 922 921 922 921 919 918 919 922 923 925 927 927 925 924 924 925 922 922 924 910 893 895 896 888 889 895 893 889 886 886 887 890 895 899 896 898 901 903 904 893 879 873 864 849 845 847 845 842 842 843 843 844 844 842 843 843 843 843 843
893 891 890 890 889 888 888 886 885 886 890 897 906 914 923 925 922 922 923 922 923 922 920 922 925 925 925 928 928 925 923 925 924 921 918 918 922 924 926 928 927 927 926 922 923 923 921 925 919 900 896 899 894 893 898 900 899 895 892 896 899 897 896 898 897 893 895 902 901 898 887 862 844 845 848 844 842 844 846 846 846 844 843 843 842 842 842 842
893 892 890 889 889 888 886 888 891 894 903 914 918 922 924 920 919 922 923 923 925 924 922 922 923 925 929 930 929 929 929 927 924 921 919 918 922 926 927 928 927 927 928 924 923 925 925 927 926 918 913 906 897 895 897 898 900 902 900 899 902 902 902 909 905 892 893 900 900 904 898 868 848 848 846 842 845 847 847 847 846 845 844 843 841 841 841 841
893 891 890 889 889 887 887 893 899 900 907 916 919 921 921 917 919 922 922 923 925 925 924 923 922 925 931 931 930 933 934 930 924 921 920 920 922 925 928 930 927 927 930 928 925 926 929 931 933 930 919 906 898 896 898 900 900 902 903 899 900 903 906 916 917 906 906 907 901 907 904 873 849 845 844 843 847 848 847 848 847 846 845 843 841 841 840 840
894 893 891 890 889 887 887 895 904 911 918 921 920 922 921 917 919 922 922 923 925 926 926 926 924 924 927 930 932 936 936 931 925 922 922 922 922 925 928 928 927 928 930 929 927 928 930 933 935 928 910 899 900 901 901 903 902 902 902 900 902 905 907 911 913 913 920 918 912 915 904 872 849 844 845 846 847 849 849 849 850 849 846 844 842 841 840 840
896 895 893 891 889 887 889 893 903 917 926 925 923 925 923 921 921 922 922 923 923 924 925 926 926 924 924 927 930 934 935 931 927 926 926 926 926 926 926 926 927 930 931 930 929 931 931 931 932 927 913 902 901 902 903 905 905 905 905 904 904 905 907 911 911 916 922 914 910 915 900 871 855 850 850 851 850 851 852 851 852 850 846 844 843 841 840 838
897 896 894 893 890 889 894 898 902 914 925 926 926 927 925 924 925 924 923 923 922 922 923 924 924 923 923 926 928 930 932 931 930 929 929 928 926 924 924 927 928 930 931 929 928 931 933 931 930 931 926 915 905 904 909 913 913 911 910 909 908 907 910 913 915 920 919 906 902 906 892 870 861 859 857 856 855 854 855 853 851 848 845 844 842 840 838 836
897 895 894 894 894 895 900 903 902 910 921 922 922 925 925 926 927 925 924 924 923 923 924 923 923 924 926 928 931 931 931 931 932 932 933 933 929 925 926 927 928 929 930 929 929 931 934 932 931 931 930 922 914 912 914 918 920 919 916 914 912 910 909 911 916 917 911 903 899 895 885 874 869 866 863 860 859 858 855 852 848 845 844 842 840 839 837 835
898 898 899 899 898 899 903 905 906 910 914 914 916 922 924 924 926 926 926 925 924 924 925 924 925 927 927 929 932 930 928 929 932 932 933 932 929 927 926 925 927 929 929 930 930 931 935 935 931 929 928 924 922 920 918 920 922 920 918 916 913 911 908 910 915 909 904 907 902 887 881 880 873 868 867 865 862 858 853 849 847 844 843 842 840 838 837 835
900 903 907 906 903 904 906 907 910 912 911 912 917 921 920 922 925 927 927 926 924 924 926 927 927 927 926 927 929 929 926 927 930 930 930 929 928 928 927 927 929 929 930 933 932 931 937 939 932 928 929 925 923 922 920 921 921 917 917 915 911 909 908 908 908 902 901 906 897 882 882 882 874 869 868 864 859 855 851 848 846 845 844 842 841 840 838 836
903 905 909 909 909 913 914 912 913 913 911 914 919 920 919 920 922 922 924 926 927 926 925 926 926 926 925 925 926 928 927 927 929 928 926 928 928 927 928 929 930 930 931 934 933 933 938 937 929 930 933 928 926 925 922 922 922 916 913 910 907 906 904 902 901 897 896 896 888 883 883 878 870 866 862 857 855 852 850 849 848 849 848 846 845 843 840 837
904 905 908 910 913 918 918 915 914 913 913 915 917 917 917 917 918 919 920 924 926 925 925 926 924 922 924 925 926 928 926 925 928 926 925 927 928 927 927 926 927 931 933 932 933 935 938 934 927 931 936 931 926 925 922 922 920 915 910 906 905 905 904 902 900 896 894 890 883 881 879 872 864 859 855 853 853 852 852 852 852 852 851 850 848 845 841 837
904 903 905 907 912 918 918 915 914 912 913 915 915 916 917 915 914 917 918 919 920 920 922 924 922 920 923 925 927 927 924 923 925 924 924 926 926 926 926 923 924 929 931 930 931 933 937 936 930 933 937 930 923 922 920 919 920 918 912 906 903 904 904 900 894 889 886 883 878 877 875 867 859 855 854 854 854 856 857 856 855 854 852 850 847 843 840 835
904 905 903 903 910 916 916 915 915 912 909 910 911 913 916 912 911 915 917 917 918 918 919 920 920 921 923 925 926 925 922 922 923 923 923 923 923 922 923 922 922 925 927 927 929 930 934 935 933 935 935 927 921 920 918 923 927 917 900 891 888 889 890 886 881 878 875 875 875 874 870 862 857 857 859 859 860 861 860 858 856 853 850 847 844 840 836 832
Wind_Speed
21 22 22 23 23 23 24 24 23 23 23 22 21 21 20 20 18 16 17 18 19 19 15 14 16 15 15 13 4 4 10 12 21 30 28 24 26 27 28 28 29 28 28 27 25 25 23 20 21 21 17 8 2 2 1 1 1 1 1 3 3 3 2 3 4 5 4 6 10 10 11 11 10 10 9 9 4 2 5 3 1 1 8 11 11 10 8 7
21 21 22 23 23 23 23 23 22 23 22 21 20 20 19 19 17 15 16 19 19 20 18 14 18 17 15 17 8 2 3 8 21 28 26 29 30 29 30 28 27 25 27 27 25 24 18 17 19 17 10 5 3 1 1 0 1 2 2 3 3 2 2 6 7 7 7 7 8 9 10 9 10 10 7 8 8 9 6 2 5 5 10 11 11 10 7 5
20 21 22 23 22 22 23 22 22 23 21 20 19 19 18 18 16 14 15 19 19 19 19 15 16 21 19 19 11 2 2 6 16 22 25 32 31 30 30 28 27 25 24 23 23 22 17 17 18 14 6 4 4 1 1 1 1 3 2 4 2 2 4 8 10 9 9 9 8 9 9 8 10 9 6 7 9 9 5 8 11 10 10 8 6 9 7 5
20 21 22 22 21 21 21 22 22 22 20 18 17 18 17 17 16 13 14 18 21 19 19 17 13 18 23 24 16 2 4 4 9 18 28 32 31 30 29 27 27 25 23 21 20 20 18 17 17 12 5 4 3 1 3 3 2 2 1 5 1 5 4 8 11 10 10 9 8 8 8 8 9 7 6 9 8 6 4 9 12 11 11 11 9 7 7 5
21 21 22 22 21 21 21 22 22 21 19 17 16 16 16 17 16 12 12 14 19 21 19 18 14 12 18 26 23 4 4 2 8 22 29 30 31 29 28 26 25 24 22 19 18 19 18 17 14 9 5 4 3 3 5 7 6 4 3 7 4 6 5 8 10 9 10 9 9 8 7 7 7 5 6 8 5 5 7 10 12 12 11 10 10 9 7 6
22 22 22 22 21 21 21 22 22 20 17 15 14 15 17 18 17 14 11 11 15 19 19 18 15 12 10 16 24 15 4 3 11 24 28 31 30 28 27 24 24 24 19 17 19 19 16 15 12 8 5 4 7 7 7 10 8 3 3 8 5 7 6 9 9 8 9 10 10 9 8 7 7 6 6 6 5 7 11 12 12 11 11 11 9 8 7 7
22 22 22 22 21 20 21 22 22 20 16 14 13 14 17 18 19 16 12 11 12 16 20 20 17 14 10 6 14 17 11 5 16 24 27 30 29 27 26 22 24 23 18 17 19 16 13 13 12 9 7 5 9 9 9 10 8 4 3 7 9 9 8 9 9 8 7 8 10 8 9 9 9 8 6 7 8 9 11 10 9 9 11 12 9 8 8 9
21 22 22 21 22 21 21 22 21 19 15 13 11 11 15 17 19 18 15 13 12 15 19 22 21 17 13 6 2 8 10 10 20 24 27 29 27 27 24 22 24 22 18 17 18 15 11 12 12 9 7 7 9 9 10 9 6 5 6 9 10 9 9 9 8 8 6 6 7 7 9 8 8 7 7 8 8 8 7 6 8 9 10 9 8 9 9 9
22 22 21 21 22 21 21 22 21 18 14 12 10 9 10 13 16 18 17 14 11 13 16 21 24 22 18 10 2 5 9 15 20 23 27 28 27 25 22 22 23 20 18 17 17 16 10 9 10 8 6 7 9 9 8 6 4 8 9 10 10 10 10 8 7 7 6 5 5 6 7 6 7 6 6 7 4 7 6 6 6 8 9 8 8 9 9 8
22 22 20 20 22 22 21 22 20 16 13 12 11 9 8 9 12 16 19 15 10 11 12 15 18 22 24 16 7 8 11 18 19 24 27 27 27 24 22 21 20 19 17 16 17 16 10 9 10 8 6 6 8 7 5 5 5 8 9 8 9 10 8 7 7 6 5 4 4 5 6 7 6 4 5 3 6 7 5 6 6 7 7 8 8 7 7 7
23 21 19 20 21 22 22 21 19 15 13 13 13 12 10 9 8 12 19 15 8 12 12 11 12 15 21 19 12 8 14 18 19 25 26 26 26 21 21 20 17 17 16 14 15 14 11 11 12 8 3 4 9 7 3 5 6 7 7 7 8 8 7 6 3 4 5 4 7 7 7 9 8 5 5 2 7 6 5 5 5 6 6 6 7 6 6 5
23 21 19 20 21 22 21 20 17 14 14 16 16 14 12 11 7 9 18 15 8 11 12 11 11 11 12 14 11 9 16 17 20 25 24 25 24 18 19 19 15 14 14 12 14 15 12 11 13 9 3 4 8 5 3 6 6 7 6 5 7 6 2 3 5 7 6 5 9 8 7 9 7 2 3 5 6 6 6 6 5 6 5 5 6 5 5 7
24 21 19 20 21 21 21 19 15 13 15 18 19 17 14 11 8 8 15 16 8 7 9 8 9 10 9 7 8 15 20 17 21 27 28 28 23 17 18 18 13 12 12 10 11 14 13 11 11 8 6 6 7 5 4 6 7 8 5 1 5 3 4 7 8 8 6 7 12 8 4 3 5 9 8 6 6 7 6 6 6 5 4 4 3 3 5 11
24 21 19 19 20 20 21 18 13 12 16 21 24 23 18 11 8 8 12 16 12 6 7 8 9 9 7 5 6 19 23 20 26 33 32 30 26 21 21 20 12 11 11 9 10 13 14 15 12 7 4 6 9 6 4 3 3 8 7 2 3 3 5 7 7 8 8 8 13 9 2 2 8 9 7 6 7 7 6 6 6 5 5 4 3 6 9 13
24 21 19 19 19 20 20 18 11 10 15 21 26 29 26 16 8 5 8 14 15 12 8 9 12 9 4 4 6 20 26 25 29 32 29 27 25 19 22 22 13 11 11 9 11 13 15 14 10 5 5 10 11 7 4 5 7 9 7 4 6 5 5 7 6 11 9 7 11 8 3 2 3 7 8 7 7 8 6 6 6 6 8 9 9 11 11 12
24 22 19 18 19 19 20 18 10 8 12 16 20 26 30 27 17 6 3 5 10 16 14 12 14 8 3 3 9 19 25 25 25 29 29 26 21 16 21 21 13 13 12 10 14 14 13 9 3 4 8 11 11 8 6 7 7 7 6 5 7 7 5 6 6 10 11 8 8 6 4 5 6 8 10 8 7 7 6 6 8 10 12 12 11 11 10 10
24 21 18 17 18 19 19 18 10 5 7 8 9 15 21 28 29 17 5 2 4 9 14 19 15 1 4 7 9 13 20 24 24 29 32 26 20 17 19 15 11 16 10 7 18 13 9 8 2 4 7 8 8 6 5 7 7 5 5 5 6 9 6 6 8 9 12 9 7 6 4 6 8 9 9 8 6 6 6 7 11 13 13 12 11 11 11 11
23 20 18 16 17 19 19 19 12 2 4 3 3 8 10 16 27 30 20 9 4 2 6 21 17 3 2 11 11 13 22 26 21 27 33 26 22 19 18 12 10 14 5 3 14 10 6 7 4 5 6 7 8 7 7 7 6 6 5 5 5 7 7 8 9 8 12 11 8 6 4 6 10 10 9 9 9 10 11 12 14 14 13 12 12 11 11 12
22 19 17 15 16 19 19 19 15 5 4 5 6 9 8 5 10 23 28 20 10 3 2 12 12 3 3 10 13 18 22 21 15 24 34 30 24 20 19 16 8 8 6 2 7 8 6 5 6 8 8 10 11 9 9 6 6 9 8 7 6 6 6 8 8 8 10 9 7 6 5 5 7 7 8 12 15 17 17 15 13 13 13 12 12 11 12 12
21 18 16 14 14 17 19 19 16 11 3 4 7 7 5 3 0 6 17 18 13 9 6 2 5 4 4 6 12 21 20 15 12 22 33 31 25 17 15 15 6 6 8 4 5 6 6 7 9 11 10 12 12 12 13 8 7 9 8 7 7 6 6 9 8 9 10 6 6 7 7 6 5 7 12 16 18 17 16 16 14 13 12 12 12 12 12 11
19 17 15 13 13 14 18 18 18 16 7 3 6 5 3 3 2 1 4 8 10 7 7 4 5 6 6 6 11 20 14 8 11 20 31 30 21 12 9 10 7 7 9 9 6 3 6 10 11 13 13 12 12 13 14 10 7 8 7 6 6 6 7 9 7 9 10 5 5 5 6 8 10 15 16 17 17 15 15 15 14 14 12 10 11 12 11 9
19 16 14 13 11 12 16 18 21 19 11 10 13 11 7 5 3 1 2 4 5 4 5 6 7 7 8 5 12 20 10 5 10 18 30 28 16 8 6 7 7 6 8 9 6 5 7 10 13 14 12 10 10 13 15 13 8 7 6 5 5 7 7 7 7 11 10 4 3 4 3 9 15 16 16 16 14 12 13 14 12 12 11 10 11 11 11 11
18 16 14 13 9 8 13 17 20 20 17 18 17 12 6 5 3 2 3 1 1 2 3 5 6 7 8 5 14 20 8 7 10 13 26 23 10 6 5 6 7 6 7 8 8 7 7 9 14 13 11 10 10 13 15 11 6 6 6 6 5 8 7 5 8 12 11 6 6 7 5 9 11 11 13 13 11 11 11 12 10 10 10 10 10 10 11 12
17 16 14 13 8 5 10 15 17 17 17 18 17 12 6 3 2 3 4 1 1 2 2 2 3 5 6 5 15 15 4 7 7 10 22 18 9 8 4 5 6 6 7 8 8 9 7 9 12 11 10 11 9 11 13 9 5 5 7 7 6 9 8 5 8 12 9 5 6 9 7 6 7 8 9 7 8 10 9 10 10 9 9 9 10 11 12 12
17 16 15 14 8 5 7 11 13 13 12 14 13 11 9 5 2 3 3 1 2 1 2 1 2 6 7 8 16 10 0 4 6 11 19 16 10 6 3 4 3 6 8 8 6 6 7 9 11 11 10 11 9 8 11 8 5 4 7 8 8 10 10 7 8 9 5 2 5 6 4 1 3 6 6 5 6 9 8 10 11 9 9 9 9 10 11 11
16 15 15 15 8 5 5 6 9 8 6 10 10 10 10 6 2 2 1 1 2 2 1 4 4 9 11 10 15 8 2 5 10 14 17 17 11 3 2 5 2 5 6 3 2 2 5 9 10 11 10 10 9 7 9 9 5 4 6 9 9 10 10 8 8 7 3 3 5 5 3 1 0 4 4 4 6 7 7 9 9 9 9 9 9 9 10 11
15 15 15 16 11 8 5 4 8 8 4 5 10 12 10 5 3 2 1 1 2 3 3 5 4 8 11 10 14 7 1 7 11 12 17 18 13 3 2 7 3 5 5 0 1 1 5 9 8 10 9 8 7 7 10 10 5 4 8 12 11 10 8 6 6 6 3 3 4 5 5 0 1 2 2 4 6 7 7 9 9 8 9 9 9 9 10 10
12 14 14 14 14 13 9 5 7 9 6 8 11 11 6 4 3 1 1 2 2 2 1 2 3 7 10 8 11 7 1 6 5 9 17 17 14 5 1 7 5 7 7 2 3 2 4 7 7 9 8 6 6 8 11 10 4 5 11 14 12 9 6 4 4 5 3 4 3 7 7 2 0 1 1 2 4 6 7 8 9 9 9 9 9 9 10 10
9 12 13 12 11 12 9 7 9 10 11 11 10 8 3 4 3 1 2 1 1 2 0 2 3 6 10 7 7 7 3 4 4 8 14 12 17 10 1 4 7 7 6 4 4 2 3 3 3 5 6 6 8 10 10 8 5 9 14 13 10 7 5 4 4 4 3 3 3 7 7 2 1 1 2 3 3 5 6 6 7 7 7 8 8 8 10 9
7 8 12 12 11 10 6 6 12 14 13 13 9 5 2 2 1 2 2 1 0 2 1 3 4 4 9 6 4 7 6 5 4 6 6 6 13 12 3 2 6 5 2 5 4 3 2 1 1 3 5 6 9 10 8 7 8 12 13 10 6 4 4 3 4 4 1 2 3 7 8 4 1 1 2 1 1 3 4 4 5 7 7 7 7 7 9 8
6 6 9 11 12 12 6 5 13 16 13 12 7 3 1 1 0 3 1 1 0 2 1 3 5 4 8 6 4 7 6 4 6 6 5 4 7 11 6 3 5 4 2 5 6 5 4 2 1 2 4 8 7 7 7 7 8 10 8 6 4 1 1 1 2 2 1 1 3 8 9 4 1 2 2 1 2 4 3 5 6 7 7 7 6 7 7 7
6 4 6 9 10 10 8 9 14 15 12 10 4 1 1 0 1 1 1 1 2 2 1 1 4 5 6 5 5 7 5 4 7 7 7 6 6 10 10 6 6 4 4 4 7 7 3 3 4 1 1 9 8 6 6 6 7 8 6 6 5 3 3 3 3 3 1 2 4 8 9 3 2 1 3 4 4 3 3 5 5 6 7 6 6 6 6 6
4 3 4 8 8 6 10 14 14 13 11 7 1 1 1 1 1 0 0 2 2 1 1 2 3 5 5 4 5 6 3 3 8 8 6 6 6 7 9 8 8 4 2 3 5 6 1 2 7 3 1 7 8 5 5 5 7 7 6 6 4 2 4 3 3 3 2 3 7 10 6 1 3 2 5 6 5 3 3 6 4 5 6 6 6 6 6 6
2 2 3 6 7 6 12 15 13 11 8 3 2 1 3 2 0 1 0 2 1 3 1 1 3 2 3 3 3 4 3 3 6 7 6 5 4 4 5 8 10 6 2 2 2 4 2 0 5 5 2 5 7 4 4 5 5 5 4 5 3 3 3 1 2 3 3 4 8 9 3 0 3 2 7 7 5 3 3 5 5 5 5 5 6 6 6 7
2 4 4 4 4 7 13 13 10 9 4 1 2 1 3 2 1 0 1 1 0 1 1 0 3 2 1 1 1 2 1 2 5 5 5 5 4 4 4 5 9 8 3 2 1 2 2 2 2 5 2 3 6 4 4 4 3 3 3 4 2 2 1 2 3 4 4 4 5 4 1 2 2 2 6 5 5 4 3 5 6 6 5 5 5 5 6 6
4 4 3 2 4 9 13 11 9 6 2 1 2 2 2 1 0 2 1 1 1 1 3 2 2 2 2 1 1 3 1 1 4 3 3 4 4 4 3 3 7 8 5 2 2 2 2 3 4 7 3 3 6 4 3 3 2 2 3 3 1 2 3 1 4 4 3 3 3 2 2 3 1 1 4 6 6 3 3 5 8 7 7 5 5 5 6 6
3 3 1 2 8 13 12 10 7 3 1 1 3 2 1 0 1 2 2 1 1 1 3 1 1 2 2 1 1 4 4 2 4 3 1 1 2 3 3 3 5 6 6 3 1 2 1 5 5 4 2 4 5 3 4 3 2 1 2 2 3 2 4 1 2 3 3 3 3 2 4 3 3 2 3 5 3 2 3 6 7 7 7 6 5 5 6 7
3 4 2 2 10 13 9 8 5 1 1 2 4 3 1 0 2 2 3 2 0 2 2 1 2 1 0 1 1 3 5 3 3 4 1 1 1 1 1 3 4 5 6 4 2 1 1 4 3 1 3 8 6 2 3 5 2 1 1 2 2 2 1 2 1 1 2 3 4 3 4 4 4 1 1 2 3 4 5 7 8 8 6 6 6 6 6 7
3 3 2 4 12 11 7 7 4 2 0 2 4 2 1 1 1 2 4 3 1 1 2 1 1 1 1 2 2 2 3 3 3 3 1 1 1 1 1 0 2 5 6 5 2 1 2 2 2 1 6 9 5 2 2 2 3 3 2 4 2 1 1 1 0 1 2 2 4 4 4 2 2 1 4 6 6 7 8 8 8 8 7 6 6 5 5 6
3 1 1 7 14 8 5 6 4 2 3 2 2 1 1 2 2 3 4 3 1 1 2 1 1 1 1 1 1 1 2 2 2 2 1 0 1 2 2 1 2 4 6 6 2 1 2 1 2 5 8 7 3 2 2 2 3 4 3 3 3 2 1 1 1 1 1 1 2 3 4 4 1 4 7 6 6 7 8 9 8 8 7 7 6 5 5 6
2 0 0 10 13 5 2 5 4 3 3 2 2 2 1 2 4 4 3 3 2 1 2 2 1 1 1 0 0 1 2 2 1 1 1 1 1 1 2 2 3 4 4 5 2 1 1 0 2 6 6 4 3 1 2 0 1 2 3 2 2 2 2 2 3 1 1 1 2 3 7 7 3 4 5 3 5 7 9 10 9 9 10 9 6 5 5 5
2 0 3 12 11 3 2 4 3 3 2 2 3 2 1 2 4 3 3 2 2 1 2 2 2 2 1 0 2 2 1 2 2 1 0 0 1 1 1 1 2 3 3 4 2 2 2 1 3 5 5 7 7 3 5 3 3 2 2 2 2 3 3 1 3 2 2 3 2 3 6 5 2 3 3 3 6 9 10 10 10 10 11 10 7 6 6 6
1 1 4 13 10 2 3 4 2 3 3 2 2 2 1 1 3 2 2 2 2 1 1 1 1 1 2 2 2 1 1 1 1 1 2 2 2 3 3 2 2 4 3 2 1 1 0 1 2 5 6 5 3 4 5 4 4 3 1 1 2 2 2 2 3 1 1 4 3 3 6 4 2 2 2 6 11 12 10 11 12 12 10 9 8 7 7 8
2 1 3 11 11 3 2 2 3 3 2 2 2 2 2 1 1 1 2 2 1 1 1 1 1 1 2 3 2 3 3 1 0 1 1 2 1 3 3 2 4 2 1 1 2 1 1 1 0 3 4 3 3 3 3 3 3 2 2 3 3 3 2 2 2 1 1 6 6 5 6 4 3 6 8 12 14 13 12 12 12 12 10 8 8 8 8 8
2 1 2 7 12 7 2 0 2 4 4 3 3 2 0 1 1 1 1 2 1 0 1 2 2 1 2 2 2 2 1 1 1 1 2 1 1 1 2 3 2 1 3 4 3 1 1 1 1 2 2 2 3 2 0 2 3 2 3 4 5 5 4 3 2 2 3 5 7 6 8 8 7 10 12 13 13 14 15 14 13 11 10 9 9 9 9 9
1 1 1 3 8 7 3 1 2 5 5 4 3 1 2 1 1 1 1 1 1 0 1 1 2 1 1 2 1 1 1 2 2 1 2 1 2 1 2 2 1 1 2 3 2 1 1 2 3 4 5 5 5 5 5 6 6 6 6 7 8 7 7 4 2 5 6 6 6 8 11 14 13 12 12 13 14 16 16 15 12 10 10 10 11 10 9 9
1 1 1 0 2 3 3 3 3 4 3 2 2 2 3 3 2 1 1 1 2 2 0 1 1 2 2 2 1 2 3 3 3 2 2 3 2 1 1 3 2 1 2 1 1 1 1 2 4 7 9 8 8 10 11 9 9 10 9 10 10 9 9 6 6 8 7 7 9 10 11 14 14 12 12 14 15 16 14 12 11 11 12 12 12 12 11 11
1 1 1 1 1 1 2 2 2 4 3 1 1 2 4 4 3 2 1 0 1 1 1 2 3 4 3 2 1 1 2 2 2 2 2 2 2 2 2 1 2 3 3 1 2 1 0 3 5 6 8 9 9 10 11 10 10 12 11 12 12 11 10 9 10 12 9 8 12 13 13 16 15 14 15 15 15 13 12 13 13 14 14 14 13 13 13 13
2 2 1 2 1 1 1 1 3 4 4 3 1 2 4 5 5 3 3 2 1 2 3 2 4 5 5 3 2 1 2 1 2 2 2 2 2 2 2 0 2 3 3 2 0 1 1 3 3 3 6 9 9 10 12 11 12 13 13 13 12 12 11 11 12 13 13 14 16 17 18 18 15 14 14 12 10 11 12 13 14 14 15 15 15 15 15 15
1 1 1 2 2 2 1 1 2 3 2 2 0 2 3 4 5 4 3 3 2 3 4 3 4 5 5 3 2 3 2 2 3 3 1 3 3 1 1 1 2 2 2 3 2 2 2 2 4 4 5 7 8 9 10 10 11 14 15 15 14 12 12 12 12 12 12 14 15 15 17 15 10 9 11 11 11 12 12 12 12 12 14 15 16 17 17 17
2 1 3 2 2 1 0 1 0 1 2 2 2 3 3 5 5 4 3 4 2 1 4 5 5 3 4 4 5 6 5 4 5 5 3 3 3 1 1 1 0 1 3 2 2 3 3 2 3 3 5 5 5 6 7 5 8 14 17 18 15 10 7 7 8 8 9 11 12 11 10 8 7 8 11 12 11 12 12 11 11 12 14 17 18 18 19 20
1 0 2 0 2 2 2 1 0 2 1 2 2 4 3 3 5 5 3 3 2 1 2 4 4 2 4 5 5 4 3 2 3 4 3 4 5 4 4 5 5 4 4 3 1 3 3 2 2 3 4 3 2 4 4 2 6 10 10 10 9 6 5 5 6 7 8 7 8 8 7 8 9 9 10 11 11 12 11 11 11 13 15 18 19 20 21 20
Wind_Direction
18 16 14 14 12 11 9 7 10 9 9 11 12 14 17 21 28 34 35 32 26 23 28 28 24 17 9 360 334 57 46 39 24 28 33 11 353 347 345 348 346 349 351 344 343 343 344 344 343 340 330 324 242 218 108 157 262 222 195 219 236 240 261 354 30 12 350 4 360 355 6 5 3 13 1 325 321 330 289 279 311 30 71 81 89 86 100 113
16 14 13 12 11 10 6 7 11 9 9 12 15 17 19 23 28 36 38 35 30 21 23 31 32 29 19 11 349 231 52 29 24 28 20 359 352 350 349 353 353 355 350 340 340 344 342 336 334 332 329 331 304 112 78 148 184 223 219 223 227 255 2 36 35 23 12 360 350 353 356 355 13 15 347 337 349 341 316 354 3 31 65 75 85 75 75 92
14 13 12 10 10 7 5 9 14 11 11 14 17 20 21 23 26 37 43 38 34 26 21 28 39 38 33 23 6 268 260 354 23 20 2 354 352 350 349 354 358 356 346 334 336 341 338 330 327 325 322 310 293 83 11 59 150 233 230 233 203 30 18 43 26 12 13 350 347 356 340 341 13 4 337 351 344 327 340 29 11 7 27 24 50 63 44 45
12 11 9 9 8 7 8 13 16 12 13 17 20 24 23 23 26 36 46 42 38 32 25 23 34 38 38 34 20 331 261 329 25 2 350 351 350 348 350 351 352 353 344 335 340 343 341 339 334 328 321 308 307 4 354 45 12 295 258 250 47 38 2 36 21 3 1 341 346 349 332 350 4 346 337 353 345 317 339 25 9 346 352 352 351 2 357 2
11 8 6 9 13 15 17 16 16 13 15 20 25 29 29 27 28 34 43 44 38 35 32 26 24 24 35 38 31 16 236 339 2 348 347 348 347 348 349 349 349 350 345 342 351 350 350 354 350 350 343 325 352 7 6 25 357 320 315 281 324 38 354 4 12 1 352 335 335 339 341 351 340 332 342 340 332 312 330 357 351 333 334 337 329 324 333 350
9 5 5 11 16 19 20 18 16 15 18 23 31 36 36 34 31 32 35 36 33 31 33 32 27 18 24 44 42 44 93 80 344 340 345 345 345 347 346 347 349 351 350 353 1 356 357 3 3 5 340 342 23 13 4 7 346 309 306 294 326 36 4 344 359 356 350 335 328 330 331 332 327 334 343 331 321 321 327 332 337 338 335 334 333 332 347 354
6 3 5 10 16 19 19 18 16 16 20 25 35 40 40 39 34 32 30 28 27 26 34 37 34 26 19 51 51 46 67 48 342 340 343 343 346 349 348 349 352 357 358 3 8 359 360 7 7 1 340 14 24 1 358 352 330 299 307 327 348 15 1 343 347 341 339 325 316 317 316 322 328 330 342 333 317 313 317 325 340 349 340 339 342 345 357 360
4 3 4 8 15 19 19 18 16 17 21 26 33 39 40 40 36 33 30 31 29 30 41 42 41 37 28 28 21 43 55 359 337 341 341 343 350 354 354 354 357 1 2 9 12 1 2 10 6 3 356 13 8 352 354 348 353 9 343 341 346 349 345 338 330 321 323 313 305 310 309 313 314 319 321 305 305 315 321 336 348 351 344 341 339 350 5 3
4 2 2 8 15 18 19 18 17 18 22 27 28 25 28 35 35 30 27 30 33 39 49 48 46 43 39 34 5 58 28 340 336 342 343 348 353 356 359 360 1 3 5 10 11 6 8 8 3 359 344 351 357 350 344 339 24 21 347 337 336 327 326 321 308 304 304 296 294 303 304 308 312 328 301 272 328 351 341 343 353 3 352 350 360 7 9 1
3 360 2 9 15 19 20 18 17 19 23 28 24 11 3 13 25 25 19 21 39 48 51 51 47 44 43 37 40 61 3 338 345 346 346 352 353 358 3 2 4 4 3 6 9 9 7 0 348 327 312 334 341 331 334 339 347 349 331 324 318 304 298 284 280 298 301 310 343 335 326 316 311 315 269 259 34 10 343 337 352 18 359 360 15 8 2 5
2 1 6 11 16 19 20 19 18 21 27 27 22 13 4 355 6 21 14 16 57 63 52 47 39 40 43 40 51 50 351 345 353 348 349 354 354 1 4 0 3 2 360 1 3 2 357 351 334 314 298 328 324 316 354 5 328 313 306 309 299 278 275 265 266 341 336 7 15 350 318 289 264 251 252 327 23 6 354 347 356 23 15 7 10 1 1 9
3 3 8 12 16 19 21 20 19 28 35 31 25 17 13 8 8 23 20 26 76 73 56 48 33 25 30 42 55 22 353 355 354 352 356 356 357 5 5 2 4 4 360 353 350 347 346 341 333 336 335 313 327 330 14 359 304 280 278 287 292 277 307 13 41 15 346 17 5 337 300 269 232 144 62 52 23 6 9 7 5 11 20 13 5 360 357 14
4 4 8 11 15 20 23 21 23 39 44 41 35 26 23 23 26 33 29 37 74 73 45 30 15 13 23 50 46 14 4 359 358 3 4 0 3 9 7 8 8 6 1 350 341 339 339 333 322 318 304 311 335 318 298 307 282 286 294 244 296 289 73 50 49 13 351 23 0 334 310 313 110 90 68 57 23 16 11 2 360 355 10 6 349 8 20 31
3 3 6 10 15 20 23 24 30 50 56 52 47 42 37 35 41 46 42 46 56 46 24 16 358 358 30 73 36 13 6 4 9 10 5 359 0 3 6 7 3 355 351 342 337 338 338 333 318 287 283 331 331 303 267 298 342 341 337 54 354 357 60 43 68 37 8 15 355 336 300 32 92 81 61 56 26 15 2 352 353 341 343 337 358 41 40 37
2 3 5 8 14 19 23 27 35 63 70 62 55 50 45 43 41 38 52 56 51 37 28 28 10 356 51 90 15 5 5 9 9 5 2 357 353 350 351 350 345 345 341 325 322 325 325 325 326 334 3 2 352 357 41 37 30 10 355 28 9 360 20 7 64 61 27 2 352 343 307 314 43 33 25 34 15 3 354 346 345 345 3 15 31 43 41 33
1 2 3 7 15 19 23 27 38 79 85 75 63 53 48 45 39 17 7 34 40 40 40 21 356 346 65 48 341 354 1 2 358 358 0 357 349 336 334 335 335 336 326 326 336 326 320 321 323 4 7 12 13 17 39 39 24 18 11 14 5 353 355 354 23 47 31 7 351 344 325 309 323 353 3 8 2 349 336 342 3 20 31 34 37 38 37 30
1 2 1 7 16 19 23 26 34 96 114 98 64 47 45 43 42 40 23 322 8 41 45 20 360 340 75 19 346 349 349 346 351 356 356 357 354 337 331 331 324 322 304 347 3 355 352 360 6 9 12 22 23 12 35 41 13 15 14 360 11 355 347 3 358 14 22 6 344 334 309 304 325 347 352 345 338 334 343 13 35 43 39 35 35 31 30 27
360 1 1 6 16 20 22 22 25 70 174 177 359 7 16 33 43 44 43 54 32 345 35 16 13 125 50 4 353 340 333 333 343 352 353 2 1 340 334 331 311 323 317 39 11 11 21 16 16 19 24 24 23 18 34 38 359 359 4 349 12 2 358 5 349 1 16 359 336 323 310 333 340 337 338 348 9 27 35 41 45 43 38 33 30 28 25 23
360 3 2 5 16 22 22 18 16 9 231 244 307 335 343 360 45 42 38 46 52 50 45 3 11 84 324 339 336 330 330 330 341 355 358 2 355 341 347 349 330 347 3 45 18 23 22 22 31 22 20 19 20 13 9 22 9 1 360 357 2 2 5 355 341 0 13 356 329 331 349 342 321 323 360 31 42 47 45 43 42 37 36 32 26 25 22 21
1 5 4 6 18 24 25 23 17 14 340 284 318 334 348 346 53 38 28 41 62 73 92 8 5 43 334 320 326 332 341 351 3 4 2 360 350 342 349 352 1 21 10 13 28 29 16 27 34 17 7 10 18 8 350 360 30 15 5 3 0 8 2 335 334 4 11 351 317 337 351 323 326 31 46 51 48 46 43 40 38 34 33 29 24 22 19 20
3 9 9 8 19 28 30 33 32 31 31 17 24 40 43 11 32 29 2 52 71 65 83 56 21 38 357 326 334 340 341 350 7 9 4 2 0 358 344 346 17 29 12 13 17 22 28 33 25 7 358 2 19 11 352 357 31 32 14 2 4 11 345 318 332 359 353 327 306 335 347 352 42 57 51 52 49 44 41 38 35 30 30 27 23 19 15 17
5 13 16 10 18 33 33 39 41 37 49 72 67 71 69 39 34 350 317 80 68 36 67 45 37 40 5 355 352 345 334 326 353 8 4 1 8 12 336 347 29 36 14 16 18 16 33 31 10 357 354 1 23 17 1 359 17 40 22 5 10 360 334 317 336 346 335 314 326 332 2 41 53 56 49 51 51 47 43 41 38 29 26 24 20 16 11 13
8 15 20 11 14 35 37 43 42 35 46 64 62 61 57 34 32 351 334 94 82 35 61 29 32 23 3 22 357 346 358 13 350 356 0 360 1 349 331 358 24 31 15 20 33 31 32 19 359 350 354 5 26 23 9 1 13 51 34 12 3 355 350 326 324 332 323 302 340 358 58 59 42 44 48 47 45 47 45 42 43 35 28 23 20 17 12 12
12 17 21 15 13 38 40 45 46 36 41 54 54 46 21 360 48 10 329 183 95 63 102 53 54 32 6 357 348 342 7 22 354 346 356 1 349 322 329 2 12 28 14 13 42 52 35 8 351 349 3 11 22 27 18 6 354 30 42 25 355 342 339 310 313 324 310 283 349 19 61 51 15 31 38 31 41 44 38 36 37 34 29 23 22 20 15 15
14 18 24 22 27 51 45 47 42 31 38 47 40 24 360 349 58 28 331 148 41 2 142 74 32 22 358 332 345 345 231 17 6 350 352 360 349 317 329 347 6 28 3 360 39 66 32 5 353 357 8 10 15 22 19 11 339 349 32 19 348 328 321 322 329 324 323 359 359 14 70 67 360 39 24 2 40 39 31 36 31 25 24 22 24 21 15 16
16 21 27 28 32 44 50 46 20 9 47 45 14 354 350 349 71 64 352 163 20 338 7 358 345 5 358 340 341 336 156 1 340 344 353 360 352 298 336 340 360 24 356 348 26 71 22 3 0 5 6 8 11 10 6 5 346 328 359 353 335 318 317 337 338 318 355 10 318 351 51 175 186 51 13 352 36 34 28 37 30 23 22 18 19 19 16 14
19 21 27 33 38 46 56 36 16 25 60 11 344 343 348 4 80 64 11 124 25 344 353 352 337 358 358 351 350 350 140 321 317 345 357 357 352 296 346 0 360 1 343 244 26 35 20 4 4 8 7 10 9 356 344 346 347 323 333 332 318 310 313 329 319 298 336 327 297 3 20 41 114 54 333 341 24 24 22 30 27 24 22 17 15 16 17 16
22 23 27 35 41 54 64 45 37 44 17 329 333 340 350 46 53 355 58 94 10 344 20 347 328 351 345 348 13 40 136 314 325 345 340 356 7 333 356 20 351 327 338 36 57 49 30 11 4 4 11 16 356 334 325 331 341 312 319 315 299 294 292 290 290 284 326 356 348 2 8 18 247 260 280 355 26 18 17 23 18 18 21 17 14 14 17 16
21 27 28 34 41 52 62 52 40 23 352 339 336 336 18 60 20 333 62 122 339 355 181 336 336 345 337 338 28 41 16 7 33 326 323 4 16 356 151 35 345 320 341 53 70 45 42 30 10 6 17 8 337 321 320 341 346 311 310 301 280 259 246 253 268 276 327 22 4 355 5 10 259 297 354 11 33 7 4 16 12 14 20 17 15 16 15 13
12 26 25 32 41 38 46 43 20 1 346 345 342 342 43 45 360 67 36 261 20 348 276 359 352 326 337 350 32 13 8 22 9 330 335 30 17 7 102 92 349 327 356 52 32 14 63 108 155 42 23 357 329 323 335 356 343 322 313 303 284 234 212 234 248 257 316 25 16 3 353 341 285 289 317 359 59 308 336 9 9 10 20 20 16 15 16 13
356 20 20 28 38 32 27 360 355 351 344 345 350 8 34 306 26 94 80 235 307 333 313 10 1 339 349 13 29 352 353 1 351 0 14 34 28 22 40 36 355 344 24 28 356 355 53 64 69 72 14 360 342 335 350 350 344 340 329 335 354 319 263 297 299 345 17 276 0 2 344 328 270 264 238 185 234 271 339 17 8 7 15 15 15 14 14 12
340 4 19 24 32 35 23 349 344 347 346 347 352 304 276 81 46 97 154 262 282 348 34 343 348 351 343 9 23 347 337 345 355 9 12 19 40 41 44 30 354 353 16 11 349 352 45 66 40 109 346 7 1 346 350 341 346 353 346 360 16 9 6 358 339 2 333 275 340 352 351 335 253 275 150 173 232 262 25 37 13 9 14 8 10 12 8 8
339 356 15 14 20 28 8 354 347 346 348 352 340 260 321 77 40 287 354 356 277 282 8 272 322 347 338 356 7 343 339 356 357 1 8 30 53 64 67 40 11 18 350 330 348 354 23 76 33 32 301 10 16 8 352 337 340 344 352 14 23 31 19 346 331 338 287 300 322 328 347 347 270 279 159 173 210 229 53 55 31 20 25 8 3 9 6 4
348 38 24 6 13 8 355 353 348 348 354 342 272 310 33 70 176 254 23 42 251 251 262 256 294 332 22 29 360 342 7 33 11 2 358 26 50 51 55 32 20 23 318 318 9 1 347 323 19 22 342 354 16 12 319 302 309 309 336 30 39 52 47 316 328 330 289 304 309 309 325 270 298 239 172 171 189 196 66 61 41 29 38 18 1 5 7 2
48 46 34 18 9 344 344 349 348 353 359 275 279 345 43 96 177 33 52 126 154 273 293 247 276 295 64 60 7 8 35 12 6 10 10 22 43 29 20 19 15 12 359 4 2 342 321 246 343 10 351 2 10 345 306 316 304 287 349 39 53 68 87 255 269 257 265 303 300 284 293 350 345 168 161 161 185 179 77 50 33 19 20 31 15 3 6 359
50 19 25 22 335 335 344 348 352 10 32 283 1 26 29 90 89 20 10 278 69 360 316 298 305 353 30 14 7 24 66 357 341 355 41 36 52 54 42 33 14 15 28 16 327 353 333 266 323 345 337 52 24 326 305 341 299 288 3 4 257 159 134 234 283 266 270 297 283 284 329 346 21 179 175 177 188 161 69 30 29 11 353 17 20 5 7 356
37 342 327 305 334 344 345 342 350 41 113 354 51 71 75 81 320 348 10 343 31 339 317 350 25 9 5 320 17 4 351 342 339 349 54 55 44 44 52 69 38 21 24 14 340 61 358 282 307 336 322 355 11 331 292 302 298 350 38 326 308 84 101 132 281 306 318 290 276 314 331 319 318 305 183 189 200 77 37 16 22 3 348 1 4 8 9 353
14 318 256 295 341 345 341 342 353 148 182 59 83 104 136 63 320 343 20 9 333 309 328 69 45 15 315 288 15 2 346 344 344 352 25 78 17 351 25 64 45 22 7 349 322 54 360 297 288 90 6 326 338 21 299 293 305 342 63 12 5 66 24 314 285 302 298 287 284 305 343 317 285 305 84 286 340 23 14 8 4 348 351 1 355 4 2 348
345 303 221 334 345 346 342 342 328 245 191 86 104 119 133 109 14 10 11 352 326 339 357 107 83 38 46 344 334 5 14 11 339 333 19 54 18 13 75 66 5 14 357 333 318 302 338 328 255 53 9 330 318 40 350 320 337 329 6 32 30 154 235 279 359 203 231 282 293 304 338 297 229 50 355 330 0 19 3 358 349 339 352 2 353 354 351 345
332 284 181 346 345 347 360 351 336 22 55 75 93 106 170 144 129 91 35 7 354 343 352 113 162 164 78 29 328 360 14 354 321 309 315 41 43 41 74 88 346 5 342 311 285 278 326 94 235 313 351 342 314 56 24 348 348 339 3 37 8 334 250 248 252 180 191 275 284 300 294 248 206 12 333 324 13 18 356 346 339 339 347 349 348 345 341 339
321 150 213 347 345 332 360 15 22 48 74 92 80 103 199 153 129 115 74 28 20 8 350 16 98 122 103 106 53 50 351 317 292 299 331 59 60 39 63 39 356 5 342 309 311 54 1 162 271 309 337 322 290 26 55 30 60 348 344 46 36 347 20 357 299 279 67 297 255 287 282 266 271 319 307 343 26 3 347 342 338 341 340 335 332 333 337 337
298 200 333 349 349 326 18 45 41 29 68 101 74 87 167 152 134 128 119 75 57 55 341 2 88 104 119 182 39 51 340 298 270 284 33 79 33 67 180 273 354 24 359 310 327 52 41 286 283 287 273 266 279 359 52 52 77 58 322 47 40 356 57 83 272 305 5 320 311 284 270 278 296 249 253 28 13 349 345 344 340 338 334 327 326 335 344 336
328 319 338 351 351 350 50 71 80 33 54 93 70 45 360 134 126 131 162 139 101 130 343 15 43 90 144 141 75 90 245 273 273 315 24 15 32 89 157 189 50 30 359 313 333 36 36 224 256 274 271 267 289 22 33 22 53 58 328 16 26 354 114 183 250 347 357 282 294 273 254 275 327 275 293 347 346 343 342 341 339 332 322 322 332 342 340 325
3 297 317 353 1 26 67 76 111 95 87 94 78 58 3 25 82 121 161 149 149 171 152 133 276 274 150 135 126 170 212 241 308 350 23 25 50 138 157 109 66 42 344 332 352 6 264 222 314 307 310 336 354 1 5 359 24 23 323 335 352 344 351 327 295 64 222 230 221 243 260 265 317 325 328 330 330 332 333 334 332 322 316 324 333 332 322 310
336 262 247 0 20 49 92 26 104 122 124 110 98 110 122 54 19 323 54 113 134 145 154 146 142 145 129 117 125 157 221 227 159 22 23 18 274 192 126 96 84 353 292 294 303 332 315 289 325 324 304 293 299 290 318 350 330 316 319 329 328 314 301 304 279 243 248 228 212 238 270 278 300 313 313 314 320 326 326 323 317 311 315 322 321 316 309 302
312 331 240 359 23 49 77 17 67 114 134 142 126 148 183 135 121 270 342 52 148 147 336 106 111 126 122 111 152 221 229 191 180 327 345 273 262 34 103 163 221 311 298 273 238 215 282 274 240 240 243 250 277 289 310 331 312 289 295 300 296 286 273 270 259 244 258 277 261 252 269 283 294 300 303 313 321 318 312 307 307 313 318 318 313 308 308 312
287 347 56 79 23 51 61 31 54 100 138 170 144 150 168 148 132 160 317 322 167 167 208 105 155 202 162 142 203 231 208 188 185 233 254 230 234 283 241 234 244 151 167 180 203 212 261 268 241 239 248 259 276 287 297 308 292 281 288 287 279 275 269 255 243 249 268 292 277 263 272 283 289 298 307 311 307 301 302 310 318 322 322 318 317 318 323 328
18 108 90 50 17 59 53 19 56 83 90 88 102 150 159 157 157 162 191 315 142 183 217 177 198 229 217 183 193 230 219 201 193 211 235 245 261 300 301 317 92 122 125 44 350 14 315 255 242 245 262 270 276 282 287 288 281 279 281 278 272 269 263 251 247 254 258 260 265 275 283 282 286 296 297 294 293 298 313 323 326 327 327 326 327 329 329 327
64 104 38 15 51 69 42 90 97 93 92 83 110 187 175 174 179 166 145 139 160 223 231 215 205 212 222 226 216 232 249 255 238 215 205 251 271 288 301 337 122 128 110 90 303 104 148 244 264 297 286 278 274 276 279 279 280 280 274 269 268 266 263 260 259 260 257 255 262 274 278 278 282 287 285 289 302 317 324 327 334 339 337 335 334 329 323 319
38 105 101 72 83 65 14 90 119 115 106 74 171 189 186 192 184 156 141 159 179 186 192 232 234 195 189 205 218 236 263 315 300 279 304 314 308 317 291 270 132 144 161 177 186 161 168 268 328 339 293 272 262 260 263 267 275 281 280 277 273 269 268 266 265 264 263 262 263 267 272 276 279 283 294 311 322 325 329 336 344 345 337 331 326 318 313 311
340 66 145 121 96 112 154 117 130 164 157 195 204 160 187 213 181 147 153 185 209 174 169 212 241 197 167 193 221 242 256 273 280 278 281 279 272 256 253 280 33 222 233 220 181 165 183 272 318 306 278 270 261 260 263 275 288 284 281 278 272 260 247 243 243 242 247 261 272 273 273 283 297 306 312 323 334 339 342 343 341 333 324 319 312 306 304 303
331 90 206 270 81 170 199 111 263 259 167 184 177 150 190 210 146 133 158 176 208 273 201 214 227 186 176 205 227 248 258 279 301 304 301 286 283 278 264 268 274 268 259 260 219 181 201 247 296 286 276 271 263 273 278 325 309 284 266 256 249 234 231 245 247 248 253 270 286 285 283 295 311 328 334 339 346 342 333 329 326 318 312 307 302 300 300 300